| time (UTC) | temp F | wind direction | speed knots | gust knots | rain 1hr in | rain 24hr in | rain mn in | humidity % | barometer mb |
| 20260510045315 | 52 | 38 | 2.6 | 7.0 | 0.00 | 0.17 | 0.00 | 90 | 1010.0 |
| 20260510044836 | 52 | 49 | 2.6 | 5.2 | 0.00 | 0.17 | 0.00 | 90 | 1009.8 |
| 20260510044315 | 52 | 52 | 0.9 | 3.5 | 0.00 | 0.17 | 0.00 | 90 | 1009.6 |
| 20260510043814 | 52 | 67 | 1.7 | 3.5 | 0.00 | 0.17 | 0.00 | 90 | 1009.6 |
| 20260510043314 | 52 | 90 | 2.6 | 3.5 | 0.00 | 0.17 | 0.00 | 89 | 1009.5 |
| 20260510042815 | 52 | 61 | 0.0 | 2.6 | 0.00 | 0.17 | 0.00 | 89 | 1009.6 |
| 20260510042317 | 52 | 81 | 0.9 | 2.6 | 0.00 | 0.17 | 0.00 | 89 | 1009.5 |
| 20260510041840 | 52 | 80 | 1.7 | 2.6 | 0.00 | 0.17 | 0.00 | 89 | 1009.6 |
| 20260510041320 | 52 | 68 | 0.9 | 2.6 | 0.00 | 0.17 | 0.00 | 89 | 1009.5 |
| 20260510040819 | 52 | 67 | 0.9 | 2.6 | 0.00 | 0.17 | 0.00 | 89 | 1009.4 |
| 20260510040319 | 52 | 86 | 0.9 | 2.6 | 0.00 | 0.17 | 0.00 | 89 | 1009.6 |
| 20260510035839 | 53 | 55 | 0.9 | 2.6 | 0.00 | 0.17 | 0.17 | 89 | 1009.6 |
| 20260510035318 | 53 | 71 | 1.7 | 2.6 | 0.00 | 0.17 | 0.17 | 89 | 1009.6 |
| 20260510034819 | 53 | 65 | 1.7 | 2.6 | 0.00 | 0.17 | 0.17 | 89 | 1009.6 |
| 20260510034318 | 53 | 62 | 0.9 | 2.6 | 0.00 | 0.17 | 0.17 | 89 | 1009.6 |
| 20260510033819 | 53 | 59 | 0.9 | 1.7 | 0.00 | 0.17 | 0.17 | 88 | 1009.7 |
| 20260510033321 | 53 | 116 | 0.0 | 1.7 | 0.00 | 0.17 | 0.17 | 88 | 1009.6 |
| 20260510032823 | 53 | 116 | 0.9 | 1.7 | 0.00 | 0.17 | 0.17 | 88 | 1009.7 |
| 20260510032324 | 53 | 60 | 0.0 | 1.7 | 0.00 | 0.17 | 0.17 | 89 | 1009.7 |
| 20260510031825 | 53 | 60 | 0.0 | 1.7 | 0.00 | 0.17 | 0.17 | 88 | 1009.7 |
| 20260510031326 | 53 | 60 | 0.0 | 1.7 | 0.00 | 0.17 | 0.17 | 88 | 1009.6 |
| 20260510030827 | 53 | 60 | 0.0 | 1.7 | 0.00 | 0.17 | 0.17 | 88 | 1009.6 |
| 20260510030329 | 53 | 60 | 0.0 | 0.9 | 0.00 | 0.17 | 0.17 | 88 | 1009.6 |
| 20260510025830 | 54 | 60 | 0.0 | 0.9 | 0.00 | 0.17 | 0.17 | 88 | 1009.6 |
| 20260510025352 | 54 | 60 | 0.0 | 0.0 | 0.00 | 0.17 | 0.17 | 88 | 1009.5 |
| 20260510024812 | 54 | 60 | 0.0 | 0.9 | 0.00 | 0.17 | 0.17 | 88 | 1009.5 |
| 20260510024331 | 54 | 60 | 0.0 | 0.9 | 0.00 | 0.17 | 0.17 | 88 | 1009.5 |
| 20260510023813 | 54 | 60 | 0.0 | 0.9 | 0.00 | 0.17 | 0.17 | 88 | 1009.5 |
| 20260510023312 | 54 | 60 | 0.0 | 1.7 | 0.00 | 0.17 | 0.17 | 87 | 1009.4 |
| 20260510022812 | 54 | 60 | 0.0 | 2.6 | 0.00 | 0.17 | 0.17 | 87 | 1009.4 |
| 20260510022313 | 54 | 60 | 1.7 | 2.6 | 0.00 | 0.17 | 0.17 | 87 | 1009.5 |
| 20260510021814 | 54 | 56 | 0.9 | 1.7 | 0.00 | 0.17 | 0.17 | 86 | 1009.5 |
| 20260510021316 | 55 | 56 | 0.0 | 1.7 | 0.00 | 0.17 | 0.17 | 86 | 1009.5 |
| 20260510020818 | 55 | 56 | 0.0 | 2.6 | 0.00 | 0.17 | 0.17 | 86 | 1009.4 |
| 20260510020318 | 55 | 56 | 0.9 | 2.6 | 0.00 | 0.17 | 0.17 | 86 | 1009.2 |
| 20260510015819 | 55 | 55 | 0.9 | 1.7 | 0.00 | 0.17 | 0.17 | 85 | 1009.1 |
| 20260510015319 | 55 | 42 | 0.0 | 1.7 | 0.00 | 0.17 | 0.17 | 84 | 1009.0 |
| 20260510014841 | 56 | 58 | 0.9 | 1.7 | 0.00 | 0.17 | 0.17 | 84 | 1009.0 |
| 20260510014340 | 56 | 72 | 0.0 | 1.7 | 0.00 | 0.17 | 0.17 | 83 | 1008.9 |
| 20260510013820 | 57 | 72 | 0.0 | 1.7 | 0.00 | 0.17 | 0.17 | 83 | 1008.9 |
| 20260510013323 | 57 | 72 | 0.9 | 1.7 | 0.00 | 0.17 | 0.17 | 83 | 1008.8 |
| 20260510012823 | 57 | 72 | 0.0 | 1.7 | 0.00 | 0.17 | 0.17 | 82 | 1008.8 |
| 20260510012343 | 57 | 72 | 0.0 | 1.7 | 0.00 | 0.17 | 0.17 | 82 | 1008.7 |
| 20260510011823 | 57 | 88 | 0.0 | 1.7 | 0.00 | 0.17 | 0.17 | 82 | 1008.7 |
| 20260510011325 | 57 | 107 | 0.0 | 1.7 | 0.00 | 0.17 | 0.17 | 82 | 1008.7 |
| 20260510010846 | 57 | 92 | 0.0 | 1.7 | 0.00 | 0.17 | 0.17 | 81 | 1008.6 |
| 20260510010324 | 58 | 71 | 0.0 | 1.7 | 0.00 | 0.17 | 0.17 | 81 | 1008.5 |
| 20260510005823 | 58 | 81 | 0.0 | 1.7 | 0.00 | 0.17 | 0.17 | 80 | 1008.4 |
| 20260510005322 | 58 | 65 | 0.9 | 1.7 | 0.00 | 0.17 | 0.17 | 80 | 1008.2 |
| 20260510004844 | 58 | 119 | 0.0 | 1.7 | 0.00 | 0.17 | 0.17 | 79 | 1008.2 |
| 20260510004325 | 59 | 119 | 0.9 | 1.7 | 0.00 | 0.17 | 0.17 | 79 | 1008.2 |
| 20260510003823 | 59 | 119 | 0.0 | 1.7 | 0.00 | 0.17 | 0.17 | 78 | 1008.3 |
| 20260510003324 | 59 | 119 | 0.9 | 1.7 | 0.00 | 0.17 | 0.17 | 77 | 1008.3 |
| 20260510002826 | 59 | 119 | 0.0 | 1.7 | 0.00 | 0.17 | 0.17 | 77 | 1008.3 |
| 20260510002327 | 60 | 119 | 0.9 | 2.6 | 0.00 | 0.17 | 0.17 | 76 | 1008.3 |
| 20260510001844 | 60 | 119 | 0.9 | 3.5 | 0.00 | 0.17 | 0.17 | 76 | 1008.1 |
| 20260510001324 | 60 | 122 | 0.9 | 3.5 | 0.00 | 0.17 | 0.17 | 75 | 1008.0 |
| 20260510000844 | 60 | 143 | 1.7 | 4.3 | 0.00 | 0.17 | 0.17 | 75 | 1007.9 |
| 20260510000326 | 61 | 131 | 1.7 | 4.3 | 0.00 | 0.17 | 0.17 | 75 | 1007.8 |
| 20260509235824 | 61 | 123 | 2.6 | 4.3 | 0.00 | 0.17 | 0.17 | 74 | 1007.5 |
| 20260509235322 | 61 | 157 | 2.6 | 5.2 | 0.00 | 0.17 | 0.17 | 74 | 1007.4 |
| 20260509234844 | 61 | 115 | 2.6 | 5.2 | 0.00 | 0.17 | 0.17 | 74 | 1007.0 |
| 20260509234324 | 61 | 126 | 2.6 | 7.0 | 0.00 | 0.17 | 0.17 | 74 | 1006.9 |
| 20260509233825 | 61 | 142 | 3.5 | 7.0 | 0.00 | 0.17 | 0.17 | 73 | 1006.9 |
| 20260509233325 | 61 | 138 | 1.7 | 7.0 | 0.00 | 0.17 | 0.17 | 73 | 1007.1 |
| 20260509232825 | 61 | 134 | 3.5 | 7.0 | 0.00 | 0.17 | 0.17 | 73 | 1007.2 |
| 20260509232324 | 62 | 117 | 2.6 | 4.3 | 0.00 | 0.17 | 0.17 | 73 | 1007.4 |
| 20260509231846 | 62 | 129 | 1.7 | 6.1 | 0.00 | 0.17 | 0.17 | 73 | 1007.7 |
| 20260509231325 | 62 | 116 | 3.5 | 5.2 | 0.00 | 0.17 | 0.17 | 72 | 1007.7 |
| 20260509230826 | 62 | 166 | 2.6 | 7.0 | 0.00 | 0.17 | 0.17 | 72 | 1007.5 |
| 20260509230348 | 62 | 157 | 3.5 | 7.0 | 0.00 | 0.17 | 0.17 | 72 | 1007.2 |
| 20260509225828 | 62 | 167 | 1.7 | 4.3 | 0.00 | 0.17 | 0.17 | 72 | 1006.9 |
| 20260509225329 | 62 | 128 | 2.6 | 4.3 | 0.00 | 0.17 | 0.17 | 72 | 1007.0 |
| 20260509224830 | 62 | 148 | 1.7 | 5.2 | 0.00 | 0.17 | 0.17 | 72 | 1007.5 |
| 20260509224332 | 62 | 202 | 2.6 | 5.2 | 0.00 | 0.17 | 0.17 | 72 | 1008.1 |
| 20260509223832 | 63 | 159 | 1.7 | 5.2 | 0.00 | 0.17 | 0.17 | 72 | 1008.3 |
| 20260509223352 | 63 | 165 | 2.6 | 5.2 | 0.00 | 0.17 | 0.17 | 72 | 1007.6 |
| 20260509222831 | 63 | 186 | 0.9 | 5.2 | 0.00 | 0.17 | 0.17 | 72 | 1007.0 |
| 20260509222331 | 63 | 174 | 1.7 | 5.2 | 0.00 | 0.17 | 0.17 | 71 | 1006.6 |
| 20260509221827 | 63 | 235 | 1.7 | 3.5 | 0.00 | 0.17 | 0.17 | 71 | 1006.4 |
| 20260509221328 | 63 | 115 | 0.9 | 5.2 | 0.00 | 0.17 | 0.17 | 71 | 1006.3 |
| 20260509220829 | 63 | 204 | 2.6 | 6.1 | 0.00 | 0.17 | 0.17 | 70 | 1006.7 |
| 20260509220329 | 63 | 236 | 0.9 | 6.1 | 0.00 | 0.17 | 0.17 | 71 | 1006.9 |
| 20260509215850 | 63 | 239 | 0.0 | 4.3 | 0.00 | 0.17 | 0.17 | 73 | 1006.5 |
| 20260509215330 | 62 | 186 | 1.7 | 5.2 | 0.00 | 0.17 | 0.17 | 74 | 1005.9 |
| 20260509214831 | 62 | 197 | 1.7 | 7.0 | 0.00 | 0.17 | 0.17 | 74 | 1006.0 |
| 20260509214331 | 62 | 201 | 4.3 | 7.0 | 0.00 | 0.17 | 0.17 | 75 | 1007.0 |
| 20260509213831 | 62 | 199 | 0.9 | 3.5 | 0.00 | 0.17 | 0.17 | 77 | 1008.4 |
| 20260509213312 | 62 | 140 | 1.7 | 4.3 | 0.00 | 0.17 | 0.17 | 77 | 1007.8 |
| 20260509212830 | 62 | 165 | 2.6 | 7.0 | 0.00 | 0.17 | 0.17 | 77 | 1007.1 |
| 20260509212330 | 61 | 153 | 3.5 | 7.0 | 0.00 | 0.17 | 0.17 | 78 | 1006.7 |
| 20260509211828 | 61 | 123 | 1.7 | 5.2 | 0.00 | 0.17 | 0.17 | 78 | 1006.9 |
| 20260509211329 | 61 | 137 | 3.5 | 7.0 | 0.00 | 0.17 | 0.17 | 80 | 1007.6 |
| 20260509210830 | 60 | 130 | 4.3 | 7.0 | 0.00 | 0.17 | 0.17 | 80 | 1007.9 |
| 20260509210330 | 60 | 159 | 3.5 | 6.1 | 0.00 | 0.17 | 0.17 | 81 | 1008.1 |
| 20260509205850 | 60 | 130 | 3.5 | 6.1 | 0.00 | 0.17 | 0.17 | 82 | 1008.0 |
| 20260509205329 | 60 | 134 | 2.6 | 3.5 | 0.00 | 0.17 | 0.17 | 84 | 1008.3 |
| 20260509204830 | 59 | 90 | 2.6 | 3.5 | 0.00 | 0.17 | 0.17 | 84 | 1008.6 |
| 20260509204331 | 59 | 107 | 0.9 | 3.5 | 0.00 | 0.17 | 0.17 | 85 | 1008.7 |
| 20260509203831 | 59 | 86 | 0.0 | 1.7 | 0.00 | 0.17 | 0.17 | 85 | 1008.7 |
| 20260509203313 | 59 | 42 | 0.0 | 0.0 | 0.00 | 0.17 | 0.17 | 85 | 1008.8 |
| 20260509202815 | 59 | 42 | 0.0 | 1.7 | 0.00 | 0.17 | 0.17 | 85 | 1008.9 |
| 20260509202318 | 59 | 355 | 0.0 | 1.7 | 0.00 | 0.17 | 0.17 | 85 | 1008.9 |
| 20260509201820 | 58 | 23 | 0.0 | 2.6 | 0.00 | 0.17 | 0.17 | 85 | 1008.8 |
| 20260509201320 | 58 | 29 | 0.9 | 2.6 | 0.00 | 0.17 | 0.17 | 84 | 1008.6 |
| 20260509200321 | 59 | 61 | 0.0 | 2.6 | 0.00 | 0.17 | 0.17 | 84 | 1008.4 |
| 20260509195822 | 59 | 96 | 0.9 | 2.6 | 0.00 | 0.17 | 0.17 | 84 | 1008.5 |
| 20260509195322 | 59 | 74 | 0.0 | 1.7 | 0.00 | 0.17 | 0.17 | 84 | 1008.6 |
| 20260509194823 | 59 | 78 | 0.0 | 1.7 | 0.00 | 0.17 | 0.17 | 84 | 1008.9 |
| 20260509194323 | 59 | 119 | 0.0 | 1.7 | 0.00 | 0.17 | 0.17 | 83 | 1008.9 |
| 20260509193824 | 59 | 57 | 0.9 | 2.6 | 0.00 | 0.17 | 0.17 | 84 | 1008.8 |
| 20260509193324 | 59 | 49 | 0.9 | 2.6 | 0.00 | 0.17 | 0.17 | 83 | 1008.8 |
| 20260509192825 | 59 | 63 | 0.9 | 1.7 | 0.00 | 0.17 | 0.17 | 84 | 1008.9 |
| 20260509192323 | 59 | 101 | 0.0 | 4.3 | 0.00 | 0.17 | 0.17 | 83 | 1009.0 |
| 20260509191824 | 60 | 101 | 0.9 | 4.3 | 0.00 | 0.17 | 0.17 | 83 | 1009.1 |
| 20260509191344 | 59 | 90 | 0.9 | 2.6 | 0.00 | 0.17 | 0.17 | 85 | 1009.1 |
| 20260509190823 | 59 | 52 | 0.0 | 3.5 | 0.00 | 0.17 | 0.17 | 85 | 1009.1 |
| 20260509190323 | 58 | 192 | 1.7 | 3.5 | 0.00 | 0.17 | 0.17 | 85 | 1009.2 |
| 20260509185824 | 58 | 101 | 2.6 | 5.2 | 0.00 | 0.17 | 0.17 | 86 | 1009.5 |
| 20260509185323 | 58 | 214 | 2.6 | 5.2 | 0.00 | 0.17 | 0.17 | 87 | 1009.6 |
| 20260509184823 | 58 | 119 | 1.7 | 3.5 | 0.00 | 0.17 | 0.17 | 87 | 1009.6 |
| 20260509184342 | 58 | 171 | 0.9 | 3.5 | 0.00 | 0.17 | 0.17 | 87 | 1009.8 |
| 20260509183823 | 57 | 204 | 1.7 | 4.3 | 0.00 | 0.17 | 0.17 | 87 | 1009.7 |
| 20260509183324 | 57 | 200 | 1.7 | 4.3 | 0.00 | 0.17 | 0.17 | 87 | 1009.5 |
| 20260509182824 | 57 | 159 | 2.6 | 3.5 | 0.00 | 0.17 | 0.17 | 87 | 1009.6 |
| 20260509182325 | 57 | 180 | 1.7 | 3.5 | 0.00 | 0.17 | 0.17 | 88 | 1009.5 |
| 20260509181824 | 57 | 184 | 1.7 | 3.5 | 0.00 | 0.17 | 0.17 | 88 | 1009.4 |
| 20260509181345 | 57 | 165 | 2.6 | 3.5 | 0.00 | 0.17 | 0.17 | 88 | 1009.5 |
| 20260509180845 | 57 | 77 | 1.7 | 3.5 | 0.00 | 0.17 | 0.17 | 89 | 1009.4 |
| 20260509180323 | 57 | 81 | 0.9 | 3.5 | 0.00 | 0.17 | 0.17 | 89 | 1009.5 |
| 20260509175822 | 56 | 43 | 1.7 | 2.6 | 0.00 | 0.17 | 0.17 | 89 | 1009.6 |
| 20260509175321 | 56 | 85 | 0.0 | 2.6 | 0.01 | 0.17 | 0.17 | 89 | 1009.6 |
| 20260509174823 | 55 | 128 | 0.9 | 2.6 | 0.01 | 0.17 | 0.17 | 89 | 1009.8 |
| 20260509174340 | 55 | 192 | 0.9 | 2.6 | 0.01 | 0.17 | 0.17 | 89 | 1009.8 |
| 20260509173821 | 55 | 192 | 0.9 | 3.5 | 0.01 | 0.17 | 0.17 | 89 | 1010.0 |
| 20260509173321 | 55 | 192 | 1.7 | 4.3 | 0.01 | 0.17 | 0.17 | 89 | 1010.1 |
| 20260509172841 | 55 | 190 | 2.6 | 4.3 | 0.01 | 0.17 | 0.17 | 89 | 1010.2 |
| 20260509172321 | 55 | 196 | 0.9 | 3.5 | 0.01 | 0.17 | 0.17 | 89 | 1010.2 |
| 20260509171821 | 55 | 189 | 1.7 | 3.5 | 0.01 | 0.17 | 0.17 | 89 | 1010.3 |
| 20260509171342 | 55 | 189 | 1.7 | 5.2 | 0.02 | 0.17 | 0.17 | 89 | 1010.3 |
| 20260509170823 | 55 | 179 | 2.6 | 5.2 | 0.02 | 0.17 | 0.17 | 89 | 1010.3 |
| 20260509170325 | 54 | 210 | 3.5 | 5.2 | 0.02 | 0.17 | 0.17 | 89 | 1010.5 |
| 20260509165826 | 54 | 174 | 3.5 | 6.1 | 0.03 | 0.17 | 0.17 | 89 | 1010.4 |
| 20260509165326 | 54 | 189 | 3.5 | 6.1 | 0.02 | 0.16 | 0.16 | 89 | 1010.4 |
| 20260509164828 | 54 | 180 | 2.6 | 4.3 | 0.03 | 0.16 | 0.16 | 89 | 1010.4 |
| 20260509164330 | 54 | 161 | 2.6 | 4.3 | 0.04 | 0.16 | 0.16 | 89 | 1010.2 |
| 20260509163852 | 54 | 193 | 2.6 | 5.2 | 0.05 | 0.16 | 0.16 | 89 | 1010.2 |
| 20260509163353 | 54 | 113 | 2.6 | 5.2 | 0.07 | 0.16 | 0.16 | 89 | 1010.0 |
| 20260509162827 | 54 | 94 | 0.9 | 5.2 | 0.07 | 0.16 | 0.16 | 89 | 1009.9 |
| 20260509162346 | 54 | 126 | 3.5 | 5.2 | 0.09 | 0.16 | 0.16 | 88 | 1009.9 |
| 20260509161826 | 54 | 40 | 2.6 | 5.2 | 0.11 | 0.16 | 0.16 | 88 | 1009.6 |
| 20260509161324 | 54 | 48 | 2.6 | 4.3 | 0.11 | 0.15 | 0.15 | 88 | 1009.7 |
| 20260509160826 | 54 | 63 | 1.7 | 4.3 | 0.12 | 0.15 | 0.15 | 88 | 1009.8 |
| 20260509160348 | 54 | 59 | 2.6 | 3.5 | 0.12 | 0.15 | 0.15 | 87 | 1010.0 |
| 20260509155826 | 54 | 15 | 1.7 | 3.5 | 0.11 | 0.14 | 0.14 | 88 | 1010.1 |
| 20260509155325 | 54 | 63 | 1.7 | 3.5 | 0.11 | 0.13 | 0.13 | 87 | 1010.1 |
| 20260509154827 | 54 | 86 | 1.7 | 2.6 | 0.11 | 0.13 | 0.13 | 87 | 1010.5 |
| 20260509154345 | 54 | 221 | 0.9 | 1.7 | 0.11 | 0.12 | 0.12 | 86 | 1010.9 |
| 20260509153823 | 54 | 221 | 0.0 | 1.7 | 0.10 | 0.11 | 0.11 | 86 | 1010.9 |
| 20260509153345 | 54 | 221 | 0.9 | 1.7 | 0.08 | 0.09 | 0.09 | 86 | 1011.1 |
| 20260509152825 | 54 | 221 | 0.0 | 1.7 | 0.08 | 0.08 | 0.08 | 85 | 1011.2 |
| 20260509152326 | 54 | 221 | 0.0 | 3.5 | 0.07 | 0.07 | 0.07 | 85 | 1011.3 |
| 20260509151847 | 54 | 222 | 1.7 | 3.5 | 0.05 | 0.05 | 0.05 | 85 | 1011.3 |
| 20260509151325 | 54 | 214 | 1.7 | 3.5 | 0.04 | 0.04 | 0.04 | 84 | 1011.2 |
| 20260509150825 | 55 | 183 | 1.7 | 3.5 | 0.03 | 0.03 | 0.03 | 84 | 1011.0 |
| 20260509150346 | 55 | 153 | 1.7 | 4.3 | 0.03 | 0.03 | 0.03 | 83 | 1010.9 |
| 20260509145826 | 55 | 157 | 1.7 | 2.6 | 0.03 | 0.03 | 0.03 | 83 | 1010.8 |
| 20260509145327 | 55 | 200 | 0.9 | 2.6 | 0.02 | 0.02 | 0.02 | 82 | 1010.9 |
| 20260509144830 | 55 | 180 | 1.7 | 2.6 | 0.02 | 0.02 | 0.02 | 82 | 1010.8 |
| 20260509144325 | 55 | 166 | 0.9 | 2.6 | 0.01 | 0.01 | 0.01 | 81 | 1010.7 |
| 20260509143825 | 55 | 152 | 0.9 | 2.6 | 0.01 | 0.01 | 0.01 | 81 | 1010.6 |
| 20260509143326 | 55 | 192 | 1.7 | 3.5 | 0.01 | 0.01 | 0.01 | 80 | 1010.6 |
| 20260509142812 | 55 | 192 | 1.7 | 3.5 | 0.00 | 0.00 | 0.00 | 79 | 1010.6 |
| 20260509142315 | 56 | 180 | 1.7 | 5.2 | 0.00 | 0.00 | 0.00 | 79 | 1010.6 |
| 20260509141831 | 55 | 194 | 2.6 | 5.2 | 0.00 | 0.00 | 0.00 | 78 | 1010.5 |
| 20260509141351 | 55 | 168 | 1.7 | 4.3 | 0.00 | 0.00 | 0.00 | 79 | 1010.5 |
| 20260509140849 | 55 | 136 | 1.7 | 2.6 | 0.00 | 0.00 | 0.00 | 78 | 1010.5 |
| 20260509140328 | 55 | 158 | 1.7 | 2.6 | 0.00 | 0.00 | 0.00 | 79 | 1010.4 |
| 20260509135829 | 55 | 188 | 1.7 | 2.6 | 0.00 | 0.00 | 0.00 | 79 | 1010.4 |
| 20260509135330 | 55 | 128 | 0.9 | 2.6 | 0.00 | 0.00 | 0.00 | 80 | 1010.5 |
| 20260509134831 | 55 | 128 | 1.7 | 5.2 | 0.00 | 0.00 | 0.00 | 80 | 1010.4 |
| 20260509134312 | 55 | 164 | 2.6 | 4.3 | 0.00 | 0.00 | 0.00 | 81 | 1010.3 |
| 20260509133815 | 55 | 165 | 3.5 | 7.0 | 0.00 | 0.00 | 0.00 | 81 | 1010.4 |
| 20260509133316 | 55 | 136 | 2.6 | 7.0 | 0.00 | 0.00 | 0.00 | 81 | 1010.4 |
| 20260509132815 | 55 | 114 | 2.6 | 6.1 | 0.00 | 0.00 | 0.00 | 81 | 1010.3 |
| 20260509132317 | 54 | 147 | 3.5 | 6.1 | 0.00 | 0.00 | 0.00 | 82 | 1010.4 |
| 20260509131838 | 54 | 165 | 2.6 | 4.3 | 0.00 | 0.00 | 0.00 | 81 | 1010.5 |
| 20260509131320 | 54 | 177 | 2.6 | 6.1 | 0.00 | 0.00 | 0.00 | 82 | 1010.3 |
| 20260509130822 | 54 | 150 | 2.6 | 6.1 | 0.00 | 0.00 | 0.00 | 82 | 1010.1 |
| 20260509130322 | 54 | 142 | 3.5 | 6.1 | 0.00 | 0.00 | 0.00 | 81 | 1009.9 |
| 20260509125823 | 54 | 68 | 1.7 | 3.5 | 0.00 | 0.00 | 0.00 | 81 | 1009.7 |
| 20260509125323 | 54 | 53 | 1.7 | 4.3 | 0.00 | 0.00 | 0.00 | 82 | 1009.7 |
| 20260509124822 | 54 | 24 | 1.7 | 6.1 | 0.00 | 0.00 | 0.00 | 81 | 1009.8 |
| 20260509124323 | 54 | 73 | 4.3 | 7.0 | 0.00 | 0.00 | 0.00 | 80 | 1009.7 |
| 20260509123845 | 54 | 55 | 2.6 | 3.5 | 0.00 | 0.00 | 0.00 | 80 | 1009.9 |
| 20260509123324 | 54 | 191 | 0.9 | 2.6 | 0.00 | 0.00 | 0.00 | 80 | 1010.2 |
| 20260509122826 | 54 | 191 | 0.0 | 0.9 | 0.00 | 0.00 | 0.00 | 79 | 1010.4 |
| 20260509122327 | 54 | 191 | 0.0 | 0.9 | 0.00 | 0.00 | 0.00 | 79 | 1010.4 |
| 20260509121827 | 54 | 191 | 0.0 | 1.7 | 0.00 | 0.00 | 0.00 | 79 | 1010.4 |
| 20260509121349 | 54 | 191 | 0.9 | 1.7 | 0.00 | 0.00 | 0.00 | 79 | 1010.4 |
| 20260509120830 | 54 | 191 | 0.0 | 1.7 | 0.00 | 0.00 | 0.00 | 79 | 1010.3 |
| 20260509120351 | 54 | 191 | 0.9 | 1.7 | 0.00 | 0.00 | 0.00 | 79 | 1010.3 |
| 20260509115831 | 54 | 101 | 0.9 | 1.7 | 0.00 | 0.00 | 0.00 | 79 | 1010.2 |
| 20260509115313 | 54 | 101 | 0.9 | 1.7 | 0.00 | 0.00 | 0.00 | 79 | 1010.0 |
| 20260509114815 | 54 | 101 | 0.0 | 1.7 | 0.00 | 0.00 | 0.00 | 78 | 1010.0 |
| 20260509114316 | 54 | 111 | 0.9 | 1.7 | 0.00 | 0.00 | 0.00 | 78 | 1010.0 |
| 20260509113817 | 53 | 111 | 0.0 | 5.2 | 0.00 | 0.00 | 0.00 | 78 | 1010.1 |
| 20260509113318 | 53 | 111 | 0.9 | 5.2 | 0.00 | 0.00 | 0.00 | 78 | 1010.0 |
| 20260509112341 | 53 | 96 | 1.7 | 2.6 | 0.00 | 0.00 | 0.00 | 78 | 1010.0 |
| 20260509111820 | 53 | 118 | 0.9 | 6.1 | 0.00 | 0.00 | 0.00 | 79 | 1009.9 |
| 20260509111319 | 52 | 118 | 3.5 | 6.1 | 0.00 | 0.00 | 0.00 | 80 | 1009.8 |
| 20260509110819 | 52 | 126 | 1.7 | 3.5 | 0.00 | 0.00 | 0.00 | 80 | 1009.8 |
| 20260509110319 | 52 | 108 | 0.9 | 5.2 | 0.00 | 0.00 | 0.00 | 80 | 1010.0 |
| 20260509105822 | 52 | 90 | 1.7 | 5.2 | 0.00 | 0.00 | 0.00 | 80 | 1009.7 |
| 20260509105322 | 52 | 86 | 1.7 | 3.5 | 0.00 | 0.00 | 0.00 | 80 | 1009.6 |
| 20260509104822 | 52 | 71 | 2.6 | 3.5 | 0.00 | 0.00 | 0.00 | 80 | 1009.5 |
| 20260509104322 | 52 | 92 | 1.7 | 2.6 | 0.00 | 0.00 | 0.00 | 79 | 1009.7 |
| 20260509103823 | 52 | 80 | 0.9 | 3.5 | 0.00 | 0.00 | 0.00 | 79 | 1009.6 |
| 20260509103324 | 52 | 81 | 2.6 | 3.5 | 0.00 | 0.00 | 0.00 | 79 | 1009.6 |
| 20260509102823 | 52 | 17 | 0.9 | 2.6 | 0.00 | 0.00 | 0.00 | 79 | 1009.7 |
| 20260509102323 | 52 | 355 | 1.7 | 2.6 | 0.00 | 0.00 | 0.00 | 79 | 1009.6 |
| 20260509101822 | 52 | 53 | 0.9 | 2.6 | 0.00 | 0.00 | 0.00 | 79 | 1009.6 |
| 20260509101320 | 52 | 55 | 0.0 | 1.7 | 0.00 | 0.00 | 0.00 | 78 | 1009.6 |
| 20260509100822 | 52 | 36 | 0.9 | 2.6 | 0.00 | 0.00 | 0.00 | 78 | 1009.6 |
| 20260509100322 | 52 | 36 | 0.9 | 2.6 | 0.00 | 0.00 | 0.00 | 78 | 1009.7 |
| 20260509095823 | 52 | 86 | 1.7 | 1.7 | 0.00 | 0.00 | 0.00 | 78 | 1009.5 |
| 20260509095323 | 52 | 86 | 0.9 | 1.7 | 0.00 | 0.00 | 0.00 | 77 | 1009.5 |
| 20260509094821 | 52 | 86 | 0.9 | 2.6 | 0.00 | 0.00 | 0.00 | 77 | 1009.5 |
| 20260509094320 | 52 | 86 | 0.9 | 5.2 | 0.00 | 0.00 | 0.00 | 77 | 1009.5 |
| 20260509093821 | 52 | 77 | 1.7 | 3.5 | 0.00 | 0.00 | 0.00 | 77 | 1009.5 |
| 20260509093322 | 52 | 51 | 1.7 | 1.7 | 0.00 | 0.00 | 0.00 | 77 | 1009.7 |
| 20260509092844 | 53 | 67 | 0.9 | 1.7 | 0.00 | 0.00 | 0.00 | 76 | 1009.7 |
| 20260509092325 | 53 | 67 | 0.0 | 2.6 | 0.00 | 0.00 | 0.00 | 75 | 1009.8 |
| 20260509091826 | 53 | 67 | 0.0 | 2.6 | 0.00 | 0.00 | 0.00 | 75 | 1009.7 |
| 20260509091328 | 53 | 67 | 0.9 | 2.6 | 0.00 | 0.00 | 0.00 | 75 | 1009.6 |
| 20260509090829 | 53 | 67 | 1.7 | 2.6 | 0.00 | 0.00 | 0.00 | 74 | 1009.6 |
| 20260509090329 | 53 | 67 | 1.7 | 3.5 | 0.00 | 0.00 | 0.00 | 74 | 1009.6 |
| 20260509085830 | 53 | 91 | 1.7 | 5.2 | 0.00 | 0.00 | 0.00 | 74 | 1009.6 |
| 20260509085331 | 53 | 62 | 1.7 | 5.2 | 0.00 | 0.00 | 0.00 | 73 | 1009.6 |
| 20260509084814 | 54 | 59 | 1.7 | 3.5 | 0.00 | 0.00 | 0.00 | 73 | 1009.7 |
| 20260509084335 | 54 | 31 | 2.6 | 6.1 | 0.00 | 0.00 | 0.00 | 72 | 1009.8 |
| 20260509083815 | 54 | 74 | 2.6 | 7.0 | 0.00 | 0.00 | 0.00 | 72 | 1009.8 |
| 20260509083316 | 54 | 87 | 2.6 | 7.0 | 0.00 | 0.00 | 0.00 | 72 | 1009.8 |
| 20260509082817 | 54 | 75 | 3.5 | 7.0 | 0.00 | 0.00 | 0.00 | 72 | 1009.9 |
| 20260509082318 | 54 | 102 | 3.5 | 7.8 | 0.00 | 0.00 | 0.00 | 72 | 1009.8 |
| 20260509081820 | 54 | 98 | 4.3 | 7.8 | 0.00 | 0.00 | 0.00 | 73 | 1009.7 |
| 20260509081320 | 54 | 104 | 3.5 | 7.8 | 0.00 | 0.00 | 0.00 | 73 | 1009.8 |
| 20260509080822 | 53 | 96 | 4.3 | 7.8 | 0.00 | 0.00 | 0.00 | 75 | 1009.8 |
| 20260509080324 | 52 | 114 | 2.6 | 6.1 | 0.00 | 0.00 | 0.00 | 77 | 1009.9 |
| 20260509075825 | 51 | 92 | 2.6 | 3.5 | 0.00 | 0.00 | 0.00 | 78 | 1010.0 |
| 20260509075347 | 51 | 80 | 0.9 | 1.7 | 0.00 | 0.00 | 0.00 | 78 | 1009.9 |
| 20260509074827 | 51 | 35 | 0.9 | 1.7 | 0.00 | 0.00 | 0.00 | 78 | 1010.0 |
| 20260509074328 | 51 | 66 | 0.9 | 1.7 | 0.00 | 0.00 | 0.00 | 77 | 1010.0 |
| 20260509073827 | 51 | 66 | 0.9 | 1.7 | 0.00 | 0.00 | 0.00 | 77 | 1010.0 |
| 20260509073328 | 51 | 66 | 0.0 | 0.9 | 0.00 | 0.00 | 0.00 | 77 | 1010.1 |
| 20260509072828 | 51 | 66 | 0.0 | 1.7 | 0.00 | 0.00 | 0.00 | 77 | 1010.0 |
| 20260509072326 | 51 | 66 | 0.9 | 1.7 | 0.00 | 0.00 | 0.00 | 77 | 1010.1 |
| 20260509071828 | 51 | 15 | 0.0 | 2.6 | 0.00 | 0.00 | 0.00 | 77 | 1010.1 |
| 20260509071345 | 52 | 15 | 1.7 | 3.5 | 0.00 | 0.00 | 0.00 | 76 | 1010.2 |
| 20260509070823 | 53 | 17 | 1.7 | 3.5 | 0.00 | 0.00 | 0.00 | 73 | 1010.3 |
| 20260509070326 | 53 | 29 | 1.7 | 2.6 | 0.00 | 0.00 | 0.00 | 73 | 1010.3 |
| 20260509065827 | 53 | 78 | 1.7 | 2.6 | 0.00 | 0.00 | 0.00 | 72 | 1010.3 |
| 20260509065327 | 53 | 58 | 0.9 | 2.6 | 0.00 | 0.00 | 0.00 | 72 | 1010.3 |
| 20260509064827 | 53 | 57 | 1.7 | 2.6 | 0.00 | 0.00 | 0.00 | 71 | 1010.3 |
| 20260509064328 | 53 | 69 | 1.7 | 2.6 | 0.00 | 0.00 | 0.00 | 72 | 1010.4 |
| 20260509063844 | 53 | 69 | 1.7 | 2.6 | 0.00 | 0.00 | 0.00 | 72 | 1010.4 |
| 20260509063324 | 53 | 55 | 0.9 | 3.5 | 0.00 | 0.00 | 0.00 | 72 | 1010.5 |
| 20260509062826 | 53 | 27 | 1.7 | 3.5 | 0.00 | 0.00 | 0.00 | 72 | 1010.5 |
| 20260509062312 | 53 | 61 | 1.7 | 3.5 | 0.00 | 0.00 | 0.00 | 71 | 1010.5 |
| 20260509061812 | 54 | 59 | 0.9 | 3.5 | 0.00 | 0.00 | 0.00 | 71 | 1010.6 |
| 20260509061312 | 54 | 59 | 1.7 | 3.5 | 0.00 | 0.00 | 0.00 | 71 | 1010.6 |
| 20260509060830 | 54 | 59 | 0.9 | 2.6 | 0.00 | 0.00 | 0.00 | 71 | 1010.4 |
| 20260509060350 | 54 | 36 | 0.9 | 3.5 | 0.00 | 0.00 | 0.00 | 71 | 1010.4 |
| 20260509055831 | 54 | 67 | 1.7 | 4.3 | 0.00 | 0.00 | 0.00 | 71 | 1010.6 |
| 20260509055329 | 54 | 53 | 1.7 | 4.3 | 0.00 | 0.00 | 0.00 | 71 | 1010.6 |
| 20260509054829 | 54 | 48 | 0.9 | 3.5 | 0.00 | 0.00 | 0.00 | 71 | 1010.6 |
| 20260509054331 | 54 | 34 | 1.7 | 4.3 | 0.00 | 0.00 | 0.00 | 71 | 1010.5 |
| 20260509053812 | 54 | 20 | 2.6 | 4.3 | 0.00 | 0.00 | 0.00 | 71 | 1010.6 |
| 20260509053333 | 54 | 62 | 2.6 | 3.5 | 0.00 | 0.00 | 0.00 | 71 | 1010.6 |
| 20260509052812 | 54 | 50 | 0.9 | 3.5 | 0.00 | 0.00 | 0.00 | 71 | 1010.7 |
| 20260509052313 | 54 | 49 | 1.7 | 3.5 | 0.00 | 0.00 | 0.00 | 71 | 1010.7 |
| 20260509051814 | 54 | 46 | 1.7 | 5.2 | 0.00 | 0.00 | 0.00 | 71 | 1010.8 |
| 20260509051313 | 54 | 53 | 2.6 | 5.2 | 0.00 | 0.00 | 0.00 | 71 | 1010.8 |
| 20260509050834 | 54 | 81 | 2.6 | 3.5 | 0.00 | 0.00 | 0.00 | 71 | 1010.8 |
| 20260509050314 | 54 | 60 | 1.7 | 3.5 | 0.00 | 0.00 | 0.00 | 71 | 1010.9 |
| 20260509045813 | 54 | 51 | 0.9 | 3.5 | 0.00 | 0.00 | 0.00 | 71 | 1011.0 |